Time,TemperatureF,DewpointF,PressureIn,WindDirection,WindDirectionDegrees,WindSpeedMPH,WindSpeedGustMPH,Humidity,HourlyPrecipIn,Conditions,Clouds,dailyrainin,SoftwareType,DateUTC
2013-03-15 00:02:00,66.0,34.0,-100.00,NE,44,4.0,7.0,30,-99.99,,,-99.99,,2013-03-15 07:02:00,
2013-03-15 00:12:00,65.0,34.0,-100.00,NNE,25,4.0,7.0,32,-99.99,,,-99.99,,2013-03-15 07:12:00,
2013-03-15 00:22:00,65.0,34.0,-100.00,NNE,21,3.0,6.0,31,-99.99,,,-99.99,,2013-03-15 07:22:00,
2013-03-15 00:32:00,66.0,33.0,-100.00,NNE,20,3.0,7.0,29,-99.99,,,-99.99,,2013-03-15 07:32:00,
2013-03-15 00:42:00,69.0,30.0,-100.00,NNE,28,4.0,6.0,23,-99.99,,,-99.99,,2013-03-15 07:42:00,
2013-03-15 00:52:00,66.0,33.0,-100.00,NNE,25,4.0,7.0,29,-99.99,,,-99.99,,2013-03-15 07:52:00,
2013-03-15 01:02:00,66.0,32.0,-100.00,NNE,15,4.0,6.0,28,-99.99,,,-99.99,,2013-03-15 08:02:00,
2013-03-15 01:12:00,67.0,32.0,-100.00,NNE,21,4.0,6.0,27,-99.99,,,-99.99,,2013-03-15 08:12:00,
2013-03-15 01:22:00,67.0,32.0,-100.00,NNE,15,4.0,6.0,27,-99.99,,,-99.99,,2013-03-15 08:22:00,
2013-03-15 01:32:00,67.0,32.0,-100.00,NNE,15,4.0,6.0,27,-99.99,,,-99.99,,2013-03-15 08:32:00,
2013-03-15 01:42:00,68.0,33.0,-100.00,North,10,3.0,5.0,27,-99.99,,,-99.99,,2013-03-15 08:42:00,
2013-03-15 01:52:00,68.0,33.0,-100.00,NE,34,4.0,6.0,27,-99.99,,,-99.99,,2013-03-15 08:52:00,
2013-03-15 02:02:00,67.0,33.0,-100.00,NNE,21,3.0,5.0,28,-99.99,,,-99.99,,2013-03-15 09:02:00,
2013-03-15 02:11:00,68.0,34.0,-100.00,NE,45,3.0,4.0,28,-99.99,,,-99.99,,2013-03-15 09:11:00,
2013-03-15 02:21:00,68.0,33.0,-100.00,NE,42,3.0,4.0,27,-99.99,,,-99.99,,2013-03-15 09:21:00,
2013-03-15 02:33:00,69.0,33.0,-100.00,NE,44,2.0,4.0,26,-99.99,,,-99.99,,2013-03-15 09:33:00,
2013-03-15 02:42:00,69.0,34.0,-100.00,NE,54,3.0,5.0,27,-99.99,,,-99.99,,2013-03-15 09:42:00,
2013-03-15 02:52:00,68.0,33.0,-100.00,NE,47,4.0,5.0,27,-99.99,,,-99.99,,2013-03-15 09:52:00,
2013-03-15 03:02:00,69.0,33.0,-100.00,NE,46,4.0,4.0,26,-99.99,,,-99.99,,2013-03-15 10:02:00,
2013-03-15 03:12:00,68.0,32.0,-100.00,NNE,32,3.0,5.0,26,-99.99,,,-99.99,,2013-03-15 10:12:00,
2013-03-15 03:22:00,68.0,32.0,-100.00,NW,318,4.0,5.0,26,-99.99,,,-99.99,,2013-03-15 10:22:00,
2013-03-15 03:32:00,68.0,32.0,-100.00,NW,322,4.0,6.0,26,-99.99,,,-99.99,,2013-03-15 10:32:00,
2013-03-15 03:42:00,68.0,31.0,-100.00,NNW,333,5.0,5.0,25,-99.99,,,-99.99,,2013-03-15 10:42:00,
2013-03-15 03:52:00,68.0,32.0,-100.00,North,5,3.0,3.0,26,-99.99,,,-99.99,,2013-03-15 10:52:00,
2013-03-15 04:02:00,68.0,31.0,-100.00,North,5,2.0,2.0,25,-99.99,,,-99.99,,2013-03-15 11:02:00,
2013-03-15 04:12:00,68.0,31.0,-100.00,North,6,2.0,4.0,25,-99.99,,,-99.99,,2013-03-15 11:12:00,
2013-03-15 04:22:00,68.0,32.0,-100.00,NNE,18,3.0,6.0,26,-99.99,,,-99.99,,2013-03-15 11:22:00,
2013-03-15 04:32:00,67.0,32.0,-100.00,North,4,4.0,4.0,27,-99.99,,,-99.99,,2013-03-15 11:32:00,
2013-03-15 04:42:00,67.0,32.0,-100.00,North,10,3.0,5.0,27,-99.99,,,-99.99,,2013-03-15 11:42:00,
2013-03-15 04:52:00,67.0,31.0,-100.00,North,11,4.0,6.0,26,-99.99,,,-99.99,,2013-03-15 11:52:00,
2013-03-15 05:01:00,68.0,31.0,-100.00,NW,323,4.0,4.0,25,-99.99,,,-99.99,,2013-03-15 12:01:00,
2013-03-15 05:12:00,68.0,30.0,-100.00,NW,311,3.0,4.0,24,-99.99,,,-99.99,,2013-03-15 12:12:00,
2013-03-15 05:22:00,67.0,29.0,-100.00,NNW,336,3.0,3.0,24,-99.99,,,-99.99,,2013-03-15 12:22:00,
2013-03-15 05:32:00,66.0,29.0,-100.00,North,350,3.0,4.0,25,-99.99,,,-99.99,,2013-03-15 12:32:00,
2013-03-15 05:42:00,66.0,29.0,-100.00,NNW,343,3.0,4.0,25,-99.99,,,-99.99,,2013-03-15 12:42:00,
2013-03-15 05:52:00,67.0,29.0,-100.00,North,350,3.0,4.0,24,-99.99,,,-99.99,,2013-03-15 12:52:00,
2013-03-15 06:02:00,68.0,30.0,-100.00,NNE,17,3.0,5.0,24,-99.99,,,-99.99,,2013-03-15 13:02:00,
2013-03-15 06:12:00,67.0,31.0,-100.00,NNE,19,4.0,5.0,26,-99.99,,,-99.99,,2013-03-15 13:12:00,
2013-03-15 06:32:00,67.0,30.0,-100.00,NNE,27,4.0,6.0,25,-99.99,,,-99.99,,2013-03-15 13:32:00,
2013-03-15 06:42:00,67.0,30.0,-100.00,North,4,4.0,4.0,25,-99.99,,,-99.99,,2013-03-15 13:42:00,
2013-03-15 06:52:00,66.0,30.0,-100.00,North,356,3.0,5.0,26,-99.99,,,-99.99,,2013-03-15 13:52:00,
2013-03-15 07:02:00,66.0,30.0,-100.00,North,359,3.0,6.0,26,-99.99,,,-99.99,,2013-03-15 14:02:00,
2013-03-15 07:11:00,66.0,29.0,-100.00,North,4,4.0,6.0,25,-99.99,,,-99.99,,2013-03-15 14:11:00,
2013-03-15 07:22:00,68.0,29.0,-100.00,North,358,4.0,4.0,23,-99.99,,,-99.99,,2013-03-15 14:22:00,
2013-03-15 07:32:00,67.0,29.0,-100.00,North,10,3.0,6.0,24,-99.99,,,-99.99,,2013-03-15 14:32:00,
2013-03-15 07:42:00,66.0,30.0,-100.00,North,0,4.0,6.0,26,-99.99,,,-99.99,,2013-03-15 14:42:00,
2013-03-15 07:52:00,67.0,30.0,-100.00,North,9,4.0,6.0,25,-99.99,,,-99.99,,2013-03-15 14:52:00,
2013-03-15 08:02:00,67.0,29.0,-100.00,North,9,5.0,5.0,24,-99.99,,,-99.99,,2013-03-15 15:02:00,
2013-03-15 08:12:00,67.0,31.0,-100.00,North,4,4.0,5.0,26,-99.99,,,-99.99,,2013-03-15 15:12:00,
2013-03-15 08:21:00,68.0,32.0,-100.00,North,3,4.0,5.0,26,-99.99,,,-99.99,,2013-03-15 15:21:00,
2013-03-15 08:32:00,68.0,32.0,-100.00,North,359,4.0,6.0,26,-99.99,,,-99.99,,2013-03-15 15:32:00,
2013-03-15 08:42:00,69.0,34.0,-100.00,NNW,342,4.0,4.0,27,-99.99,,,-99.99,,2013-03-15 15:42:00,
2013-03-15 08:52:00,69.0,35.0,-100.00,NW,321,3.0,5.0,28,-99.99,,,-99.99,,2013-03-15 15:52:00,
2013-03-15 09:02:00,69.0,35.0,-100.00,NNW,340,4.0,4.0,28,-99.99,,,-99.99,,2013-03-15 16:02:00,
2013-03-15 09:12:00,70.0,34.0,-100.00,NNW,329,2.0,4.0,27,-99.99,,,-99.99,,2013-03-15 16:12:00,
2013-03-15 09:22:00,70.0,33.0,-100.00,NW,324,2.0,4.0,25,-99.99,,,-99.99,,2013-03-15 16:22:00,
2013-03-15 09:32:00,69.0,33.0,-100.00,NNW,328,2.0,2.0,26,-99.99,,,-99.99,,2013-03-15 16:32:00,
2013-03-15 09:42:00,70.0,35.0,-100.00,WNW,296,1.0,4.0,28,-99.99,,,-99.99,,2013-03-15 16:42:00,
2013-03-15 09:52:00,69.0,36.0,-100.00,NW,319,2.0,3.0,30,-99.99,,,-99.99,,2013-03-15 16:52:00,
2013-03-15 10:01:00,69.0,36.0,-100.00,NW,319,2.0,3.0,30,-99.99,,,-99.99,,2013-03-15 17:01:00,
2013-03-15 10:12:00,71.0,39.0,-100.00,WNW,303,1.0,5.0,31,-99.99,,,-99.99,,2013-03-15 17:12:00,
2013-03-15 10:21:00,72.0,38.0,-100.00,WNW,299,2.0,5.0,29,-99.99,,,-99.99,,2013-03-15 17:21:00,
2013-03-15 10:32:00,71.0,34.0,-100.00,WNW,290,3.0,6.0,26,-99.99,,,-99.99,,2013-03-15 17:32:00,
2013-03-15 10:42:00,71.0,34.0,-100.00,NW,306,3.0,6.0,26,-99.99,,,-99.99,,2013-03-15 17:42:00,
2013-03-15 10:52:00,70.0,34.0,-100.00,WNW,301,3.0,5.0,27,-99.99,,,-99.99,,2013-03-15 17:52:00,
2013-03-15 11:02:00,70.0,34.0,-100.00,NW,315,2.0,5.0,27,-99.99,,,-99.99,,2013-03-15 18:02:00,
2013-03-15 11:12:00,72.0,33.0,-100.00,WNW,296,3.0,5.0,24,-99.99,,,-99.99,,2013-03-15 18:12:00,
2013-03-15 11:22:00,72.0,32.0,-100.00,NW,307,3.0,6.0,23,-99.99,,,-99.99,,2013-03-15 18:22:00,
2013-03-15 11:32:00,74.0,34.0,-100.00,West,261,3.0,4.0,23,-99.99,,,-99.99,,2013-03-15 18:32:00,
2013-03-15 11:42:00,74.0,34.0,-100.00,West,274,2.0,5.0,23,-99.99,,,-99.99,,2013-03-15 18:42:00,
2013-03-15 11:52:00,74.0,34.0,-100.00,West,274,2.0,5.0,23,-99.99,,,-99.99,,2013-03-15 18:52:00,
2013-03-15 12:02:00,75.0,35.0,-100.00,NW,312,2.0,7.0,23,-99.99,,,-99.99,,2013-03-15 19:02:00,
2013-03-15 12:12:00,76.0,36.0,-100.00,WNW,297,3.0,8.0,23,-99.99,,,-99.99,,2013-03-15 19:12:00,
2013-03-15 12:22:00,76.0,34.0,-100.00,NW,321,2.0,8.0,22,-99.99,,,-99.99,,2013-03-15 19:22:00,
2013-03-15 12:32:00,77.0,35.0,-100.00,NW,316,3.0,9.0,22,-99.99,,,-99.99,,2013-03-15 19:32:00,
2013-03-15 12:42:00,77.0,35.0,-100.00,WNW,297,5.0,9.0,22,-99.99,,,-99.99,,2013-03-15 19:42:00,
2013-03-15 12:52:00,78.0,37.0,-100.00,WNW,301,4.0,9.0,23,-99.99,,,-99.99,,2013-03-15 19:52:00,
2013-03-15 13:02:00,78.0,37.0,-100.00,WNW,293,4.0,9.0,23,-99.99,,,-99.99,,2013-03-15 20:02:00,
2013-03-15 13:12:00,79.0,38.0,-100.00,WNW,295,5.0,10.0,23,-99.99,,,-99.99,,2013-03-15 20:12:00,
2013-03-15 13:22:00,79.0,37.0,-100.00,WNW,287,5.0,10.0,22,-99.99,,,-99.99,,2013-03-15 20:22:00,
2013-03-15 13:31:00,79.0,38.0,-100.00,WNW,302,4.0,14.0,23,-99.99,,,-99.99,,2013-03-15 20:31:00,
2013-03-15 13:42:00,79.0,37.0,-100.00,WNW,300,6.0,11.0,22,-99.99,,,-99.99,,2013-03-15 20:42:00,
2013-03-15 13:51:00,78.0,38.0,-100.00,NW,306,5.0,12.0,24,-99.99,,,-99.99,,2013-03-15 20:51:00,
2013-03-15 14:02:00,78.0,39.0,-100.00,WNW,303,6.0,12.0,25,-99.99,,,-99.99,,2013-03-15 21:02:00,
2013-03-15 14:11:00,78.0,42.0,-100.00,NW,306,7.0,9.0,28,-99.99,,,-99.99,,2013-03-15 21:11:00,
2013-03-15 14:22:00,78.0,44.0,-100.00,WNW,299,6.0,12.0,30,-99.99,,,-99.99,,2013-03-15 21:22:00,
2013-03-15 14:32:00,76.0,44.0,-100.00,NW,306,6.0,13.0,32,-99.99,,,-99.99,,2013-03-15 21:32:00,
2013-03-15 14:42:00,75.0,44.0,-100.00,NW,309,6.0,10.0,33,-99.99,,,-99.99,,2013-03-15 21:42:00,
2013-03-15 14:52:00,75.0,46.0,-100.00,WNW,301,6.0,11.0,36,-99.99,,,-99.99,,2013-03-15 21:52:00,
2013-03-15 15:03:00,75.0,48.0,-100.00,WNW,298,6.0,11.0,38,-99.99,,,-99.99,,2013-03-15 22:03:00,
2013-03-15 15:12:00,76.0,47.0,-100.00,WNW,303,6.0,11.0,36,-99.99,,,-99.99,,2013-03-15 22:12:00,
2013-03-15 15:22:00,76.0,45.0,-100.00,WNW,302,6.0,10.0,33,-99.99,,,-99.99,,2013-03-15 22:22:00,
2013-03-15 15:32:00,76.0,44.0,-100.00,WNW,301,6.0,9.0,32,-99.99,,,-99.99,,2013-03-15 22:32:00,
2013-03-15 15:42:00,76.0,43.0,-100.00,NW,307,5.0,11.0,31,-99.99,,,-99.99,,2013-03-15 22:42:00,
2013-03-15 15:52:00,75.0,42.0,-100.00,NW,316,6.0,11.0,31,-99.99,,,-99.99,,2013-03-15 22:52:00,
2013-03-15 16:12:00,76.0,38.0,-100.00,NW,313,6.0,11.0,25,-99.99,,,-99.99,,2013-03-15 23:12:00,
2013-03-15 16:21:00,76.0,40.0,-100.00,NW,304,7.0,9.0,27,-99.99,,,-99.99,,2013-03-15 23:21:00,
2013-03-15 16:32:00,76.0,39.0,-100.00,NW,306,5.0,11.0,26,-99.99,,,-99.99,,2013-03-15 23:32:00,
2013-03-15 16:42:00,75.0,39.0,-100.00,NW,308,6.0,12.0,27,-99.99,,,-99.99,,2013-03-15 23:42:00,
2013-03-15 16:52:00,75.0,38.0,-100.00,WNW,299,6.0,11.0,26,-99.99,,,-99.99,,2013-03-15 23:52:00,
2013-03-15 17:02:00,75.0,38.0,-100.00,WNW,292,5.0,10.0,26,-99.99,,,-99.99,,2013-03-16 00:02:00,
2013-03-15 17:12:00,74.0,37.0,-100.00,NW,307,5.0,13.0,26,-99.99,,,-99.99,,2013-03-16 00:12:00,
2013-03-15 17:22:00,74.0,38.0,-100.00,WNW,299,6.0,11.0,27,-99.99,,,-99.99,,2013-03-16 00:22:00,
2013-03-15 17:32:00,73.0,38.0,-100.00,WNW,295,5.0,12.0,28,-99.99,,,-99.99,,2013-03-16 00:32:00,
2013-03-15 17:42:00,73.0,38.0,-100.00,WNW,295,5.0,12.0,28,-99.99,,,-99.99,,2013-03-16 00:42:00,
2013-03-15 17:52:00,72.0,36.0,-100.00,WNW,287,5.0,11.0,27,-99.99,,,-99.99,,2013-03-16 00:52:00,
2013-03-15 18:02:00,72.0,37.0,-100.00,WNW,294,5.0,11.0,28,-99.99,,,-99.99,,2013-03-16 01:02:00,
2013-03-15 18:12:00,71.0,36.0,-100.00,WNW,294,5.0,10.0,28,-99.99,,,-99.99,,2013-03-16 01:12:00,
2013-03-15 18:21:00,70.0,36.0,-100.00,WNW,301,5.0,9.0,29,-99.99,,,-99.99,,2013-03-16 01:21:00,
2013-03-15 18:32:00,70.0,39.0,-100.00,WNW,302,5.0,9.0,32,-99.99,,,-99.99,,2013-03-16 01:32:00,
2013-03-15 18:42:00,69.0,42.0,-100.00,NW,307,5.0,8.0,38,-99.99,,,-99.99,,2013-03-16 01:42:00,
2013-03-15 18:52:00,67.0,45.0,-100.00,WNW,303,5.0,8.0,45,-99.99,,,-99.99,,2013-03-16 01:52:00,
2013-03-15 19:02:00,66.0,46.0,-100.00,NW,310,5.0,9.0,49,-99.99,,,-99.99,,2013-03-16 02:02:00,
2013-03-15 19:12:00,65.0,47.0,-100.00,NW,313,6.0,9.0,53,-99.99,,,-99.99,,2013-03-16 02:12:00,
2013-03-15 19:22:00,63.0,47.0,-100.00,NW,317,6.0,8.0,56,-99.99,,,-99.99,,2013-03-16 02:22:00,
2013-03-15 19:32:00,63.0,48.0,-100.00,NW,320,5.0,5.0,57,-99.99,,,-99.99,,2013-03-16 02:32:00,
2013-03-15 19:42:00,63.0,48.0,-100.00,North,353,4.0,5.0,58,-99.99,,,-99.99,,2013-03-16 02:42:00,
2013-03-15 19:52:00,63.0,46.0,-100.00,NNE,13,3.0,3.0,53,-99.99,,,-99.99,,2013-03-16 02:52:00,
2013-03-15 20:02:00,64.0,44.0,-100.00,NNW,331,2.0,3.0,48,-99.99,,,-99.99,,2013-03-16 03:02:00,
2013-03-15 20:11:00,63.0,41.0,-100.00,NW,321,2.0,4.0,44,-99.99,,,-99.99,,2013-03-16 03:11:00,
2013-03-15 20:21:00,63.0,45.0,-100.00,NW,308,3.0,5.0,52,-99.99,,,-99.99,,2013-03-16 03:21:00,
2013-03-15 20:32:00,62.0,46.0,-100.00,NW,315,4.0,6.0,55,-99.99,,,-99.99,,2013-03-16 03:32:00,
2013-03-15 20:42:00,62.0,47.0,-100.00,NW,310,5.0,6.0,57,-99.99,,,-99.99,,2013-03-16 03:42:00,
2013-03-15 20:52:00,61.0,47.0,-100.00,NW,305,5.0,5.0,59,-99.99,,,-99.99,,2013-03-16 03:52:00,
2013-03-15 21:02:00,61.0,47.0,-100.00,NW,312,4.0,4.0,59,-99.99,,,-99.99,,2013-03-16 04:02:00,
2013-03-15 21:12:00,61.0,47.0,-100.00,North,351,3.0,3.0,60,-99.99,,,-99.99,,2013-03-16 04:12:00,
2013-03-15 21:22:00,61.0,47.0,-100.00,NNE,25,2.0,2.0,60,-99.99,,,-99.99,,2013-03-16 04:22:00,
2013-03-15 21:32:00,61.0,46.0,-100.00,North,11,1.0,2.0,57,-99.99,,,-99.99,,2013-03-16 04:32:00,
2013-03-15 21:42:00,62.0,45.0,-100.00,NNE,16,1.0,2.0,54,-99.99,,,-99.99,,2013-03-16 04:42:00,
2013-03-15 21:52:00,62.0,43.0,-100.00,NE,54,2.0,2.0,50,-99.99,,,-99.99,,2013-03-16 04:52:00,
2013-03-15 22:02:00,63.0,44.0,-100.00,NE,40,1.0,2.0,49,-99.99,,,-99.99,,2013-03-16 05:02:00,
2013-03-15 22:12:00,63.0,42.0,-100.00,NE,53,2.0,2.0,46,-99.99,,,-99.99,,2013-03-16 05:12:00,
2013-03-15 22:21:00,63.0,41.0,-100.00,ENE,67,2.0,3.0,44,-99.99,,,-99.99,,2013-03-16 05:21:00,
2013-03-15 22:32:00,63.0,40.0,-100.00,NE,45,2.0,2.0,43,-99.99,,,-99.99,,2013-03-16 05:32:00,
2013-03-15 22:42:00,63.0,39.0,-100.00,NNW,348,1.0,1.0,41,-99.99,,,-99.99,,2013-03-16 05:42:00,
2013-03-15 22:52:00,63.0,38.0,-100.00,NW,316,1.0,2.0,39,-99.99,,,-99.99,,2013-03-16 05:52:00,
2013-03-15 23:02:00,63.0,36.0,-100.00,NW,310,1.0,2.0,36,-99.99,,,-99.99,,2013-03-16 06:02:00,
2013-03-15 23:12:00,62.0,36.0,-100.00,SW,217,1.0,1.0,38,-99.99,,,-99.99,,2013-03-16 06:12:00,
2013-03-15 23:21:00,62.0,37.0,-100.00,SW,230,0.0,1.0,40,-99.99,,,-99.99,,2013-03-16 06:21:00,
2013-03-15 23:32:00,62.0,37.0,-100.00,SE,125,0.0,2.0,39,-99.99,,,-99.99,,2013-03-16 06:32:00,
2013-03-15 23:42:00,62.0,37.0,-100.00,East,93,1.0,2.0,40,-99.99,,,-99.99,,2013-03-16 06:42:00,
2013-03-15 23:52:00,62.0,35.0,-100.00,ENE,75,2.0,3.0,37,-99.99,,,-99.99,,2013-03-16 06:52:00,